Location: Sternwarte ZA, Rosenfeld-Brittheim
(48.2889°N, 8.6789°E)
Time: 08:23:23
(UTC+02:00)

ISS - Pass Details

Date: 26 October 2020
Orbit: 418 x 419 km, 51.6° (Epoch: 19 October)

Event Time Altitude Azimuth Distance (km) Brightness Sun altitude
Exits shadow 05:07:12 27° 182° (S) 847 -2.3 -19.7°
Maximum altitude 05:08:13 33° 145° (SE) 724 -2.3 -19.5°
Drops below altitude 10° 05:11:17 10° 79° (E) 1,498 0.3 -19.0°
Sets 05:13:30 0° 70° (ENE) 2,365 1.4 -18.6°
